Cherry Roubaix
Aug 4 2018

     

Page 1 of 2 (80 items)
FavPosRace NoNameTimeCategoryCat PosAgeGenderGen PosTeamCityStateDistPace
1034Steve BuccellaDNS60 - 6962MaleBelmontMichigan84.5
1054Benny CookNot started20 - 2926MaleBasemediaRacingBirminghamMichigan84.5
1116Fred HancockDNS60 - 6965MaleSault Ste. MarieMichigan84.5
1117Wanda HancockDNS60 - 6961FemaleSault Ste. MarieMichigan84.5
1119Kyle HardyNot started30 - 3933MaleAllendaleMichigan84.5
1206Kent McneilShorter Course20 - 2929MaleTraverse CityMichigan84.5
1229Kurt ObermeyerDNS40 - 4949MaleFlushingMichigan84.5
1235Chris PattersonDNS40 - 4948MaleHinsdaleIllinois84.5
1244James ReederNot started40 - 4949MaleBrooklynNew York84.5
1265Matt SimpsonDNS50 - 5954MaleManisteeMichigan84.5
1323Ross WilliamsShorter Course20 - 2925MaleATHLETIC MENTORS / GREENWAREUSAWilliamsburgMichigan84.5
1343Michael PowersShorter Course40 - 4940MaleTraverse CityMichigan84.5
1379Ryan LindenNot started30 - 3936MaleTraverse CityMichigan84.5
651048Mike Cline06:02:1950 - 591350Male62EagleColorado84.5 14.0 m/hr
631044Scott Claes05:38:3450 - 591258Male60EncinitasCalifornia84.5 15.0 m/hr
641021Larry Bohnsack05:38:3460 - 69764Male61BrightonMichigan84.5 15.0 m/hr
621303Craig Vaness05:34:4450 - 591156Male59PiersonMichigan84.5 15.1 m/hr
611248Jonathan Royal05:29:4930 - 39433Male58DetroitMichigan84.5 15.4 m/hr
591222Gary Nichol05:25:5450 - 591059Male56LowellMichigan84.5 15.6 m/hr
601047Chris Cline05:25:5640 - 491946Male57AllendaleMichigan84.5 15.6 m/hr
581212John Morgan04:52:1960 - 69660Male55WolverineMichigan84.5 17.3 m/hr
561292Will Unger04:50:4219 & U413Male53Traverse CityMichigan84.5 17.4 m/hr
571174Greg Lamay04:51:4340 - 491844Male54St Clair ShoresMichigan84.5 17.4 m/hr
551092Jonathan Eller04:50:2740 - 491740Male52ChicagoIllinois84.5 17.5 m/hr
531051Joe Connell04:48:3650 - 59958Male50Oak ParkIllinois84.5 17.6 m/hr
541130Steven Hetfield04:48:3640 - 491647Male51OwossoMichigan84.5 17.6 m/hr
521317Max Werner04:48:2819 & U315Male49Traverse CityMichigan84.5 17.6 m/hr
511290Vincent Trampus04:47:1250 - 59855Male48Royal OakMichigan84.5 17.7 m/hr
501282Mark Strikwerda04:38:1020 - 291426Male47ZeelandMichigan84.5 18.2 m/hr
491305Raphael Vermeir04:36:3660 - 69563Male46LondonMichigan84.5 18.3 m/hr
481187David Linden04:36:1260 - 69468Male45Yellow SpringsOhio84.5 18.4 m/hr
471182Thomas Lee04:28:3950 - 59753Male44NorthvilleMichigan84.5 18.9 m/hr
461200Yvan Marceau04:28:3850 - 59654Male43PlymouthMichigan84.5 18.9 m/hr
451201Danielle Mcdonagh04:28:3740 - 49242Female3PlymouthMichigan84.5 18.9 m/hr
441261Rob Selle04:23:2640 - 491547Male42RochesterMichigan84.5 19.2 m/hr
431153Ben Kalis04:21:3720 - 291327Male41Big RapidsMichigan84.5 19.4 m/hr
421071Jon Delboy04:21:3720 - 291227Male40Brown CityMichigan84.5 19.4 m/hr
411025Tim Bottrell04:14:4340 - 491444Male39Traverse CityMichigan84.5 19.9 m/hr
401121Wayne Harper04:14:3640 - 491346Male38RochesterMichigan84.5 19.9 m/hr
381321Bridgett Widrig04:08:1840 - 49141Female2GrawnMichigan84.5 20.4 m/hr
391313Andrew Weir04:08:1940 - 491243Male37Traverse CityMichigan84.5 20.4 m/hr
1330Corey WynsmaShorter Course40 - 4944MaleLowellMichigan84.5 20.6 m/hr
371297Leonard Van Drunen04:04:1850 - 59558Male36Grand RapidsMichigan84.5 20.8 m/hr
361098Paul Forsyth03:50:1660 - 69361Male35River ForestIllinois84.5 22.0 m/hr
351065Dave Dallam03:50:1560 - 69265Male34Oak ParkIllinois84.5 22.0 m/hr
341057Tom Corrigan03:48:1820 - 291128Male33LakewoodOhio84.5 22.2 m/hr
331168Michael Krywanski03:48:1760 - 69168Male32ATHLETIC MENTORS / GREENWAREUSARockfordMichigan84.5 22.2 m/hr
321268Stephen Smigiel03:48:1750 - 59451Male31RockfordMichigan84.5 22.2 m/hr
311326Mark Wolowiec03:48:16No Age11Male30DavisburgMichigan84.5 22.2 m/hr
301312James Webster03:48:1540 - 491146Male29TucsonArizona84.5 22.2 m/hr
Page 1 of 2 (80 items)